| time (UTC) | temp F | wind direction | speed knots | gust knots | rain 1hr in | rain 24hr in | rain mn in | humidity % | barometer mb |
| 20260508013000 | 52 | 76 | 0.0 | 0.0 | 0.00 | 0.00 | 0.00 | 99 | 1010.5 |
| 20260508012000 | 52 | 78 | 0.0 | 0.0 | 0.00 | 0.00 | 0.00 | 99 | 1010.5 |
| 20260508011000 | 52 | 155 | 1.7 | 0.0 | 0.00 | 0.00 | 0.00 | 99 | 1010.5 |
| 20260508010001 | 52 | 180 | 1.7 | 0.0 | 0.00 | 0.00 | 0.00 | 99 | 1010.5 |
| 20260508005000 | 54 | 231 | 1.7 | 0.0 | 0.00 | 0.00 | 0.00 | 99 | 1010.8 |
| 20260508004000 | 54 | 213 | 7.8 | 0.0 | 0.00 | 0.00 | 0.00 | 99 | 1010.8 |
| 20260508003001 | 52 | 246 | 6.1 | 0.0 | 0.00 | 0.00 | 0.00 | 99 | 1010.8 |
| 20260508002000 | 52 | 287 | 7.8 | 0.0 | 0.00 | 0.00 | 0.00 | 99 | 1010.5 |
| 20260508001000 | 52 | 242 | 3.5 | 0.0 | 0.00 | 0.00 | 0.00 | 99 | 1010.5 |
| 20260508000000 | 52 | 288 | 0.0 | 0.0 | 0.00 | 0.00 | 0.00 | 99 | 1010.5 |
| 20260507235000 | 52 | 187 | 1.7 | 0.0 | 0.00 | 0.00 | 0.00 | 99 | 1009.8 |
| 20260507234001 | 52 | 113 | 0.0 | 0.0 | 0.00 | 0.00 | 0.00 | 99 | 1009.8 |
| 20260507233000 | 52 | 152 | 1.7 | 0.0 | 0.00 | 0.00 | 0.00 | 99 | 1010.5 |
| 20260507232000 | 54 | 176 | 3.5 | 0.0 | 0.00 | 0.00 | 0.00 | 99 | 1010.5 |
| 20260507231001 | 54 | 160 | 6.1 | 0.0 | 0.00 | 0.00 | 0.00 | 99 | 1010.5 |
| 20260507230000 | 54 | 164 | 0.0 | 0.0 | 0.00 | 0.00 | 0.00 | 99 | 1010.5 |
| 20260507225000 | 54 | 173 | 7.8 | 0.0 | 0.00 | 0.00 | 0.00 | 99 | 1010.8 |
| 20260507224001 | 54 | 129 | 1.7 | 0.0 | 0.00 | 0.00 | 0.00 | 99 | 1010.8 |
| 20260507223001 | 54 | 64 | 1.7 | 0.0 | 0.00 | 0.00 | 0.00 | 99 | 1010.8 |
| 20260507222000 | 54 | 162 | 1.7 | 0.0 | 0.00 | 0.00 | 0.00 | 99 | 1010.8 |
| 20260507221001 | 54 | 48 | 3.5 | 0.0 | 0.00 | 0.00 | 0.00 | 99 | 1010.5 |
| 20260507220000 | 54 | 56 | 6.1 | 0.0 | 0.00 | 0.00 | 0.00 | 99 | 1010.5 |
| 20260507215001 | 54 | 102 | 0.0 | 0.0 | 0.00 | 0.00 | 0.00 | 99 | 1010.5 |
| 20260507214001 | 54 | 84 | 3.5 | 0.0 | 0.00 | 0.00 | 0.00 | 99 | 1010.5 |
| 20260507213001 | 55 | 97 | 1.7 | 0.0 | 0.00 | 0.00 | 0.00 | 99 | 1010.8 |
| 20260507212000 | 55 | 56 | 3.5 | 0.0 | 0.00 | 0.00 | 0.00 | 99 | 1010.5 |
| 20260507211000 | 55 | 63 | 7.8 | 0.0 | 0.00 | 0.00 | 0.00 | 99 | 1010.5 |
| 20260507210000 | 55 | 44 | 6.1 | 0.0 | 0.00 | 0.00 | 0.00 | 99 | 1010.5 |
| 20260507205000 | 55 | 9 | 6.1 | 0.0 | 0.00 | 0.00 | 0.00 | 99 | 1010.5 |
| 20260507204000 | 55 | 17 | 7.8 | 0.0 | 0.00 | 0.00 | 0.00 | 99 | 1010.5 |
| 20260507203000 | 55 | 63 | 11.3 | 0.0 | 0.00 | 0.00 | 0.00 | 99 | 1010.5 |
| 20260507202001 | 57 | 16 | 15.6 | 0.0 | 0.00 | 0.00 | 0.00 | 99 | 1009.8 |
| 20260507201000 | 57 | 73 | 11.3 | 0.0 | 0.00 | 0.00 | 0.00 | 99 | 1009.4 |
| 20260507200000 | 57 | 358 | 11.3 | 0.0 | 0.00 | 0.00 | 0.00 | 99 | 1009.1 |
| 20260507195000 | 57 | 66 | 1.7 | 0.0 | 0.00 | 0.00 | 0.00 | 99 | 1009.1 |
| 20260507194001 | 57 | 11 | 0.0 | 0.0 | 0.00 | 0.00 | 0.00 | 99 | 1009.1 |
| 20260507193001 | 57 | 21 | 3.5 | 0.0 | 0.00 | 0.00 | 0.00 | 99 | 1008.8 |
| 20260507192000 | 57 | 57 | 1.7 | 0.0 | 0.00 | 0.00 | 0.00 | 99 | 1008.8 |
| 20260507191000 | 59 | 61 | 7.8 | 0.0 | 0.00 | 0.00 | 0.00 | 99 | 1008.8 |
| 20260507190002 | 57 | 77 | 0.0 | 0.0 | 0.00 | 0.00 | 0.00 | 99 | 1008.8 |
| 20260507185000 | 57 | 102 | 0.0 | 0.0 | 0.00 | 0.00 | 0.00 | 99 | 1008.4 |
| 20260507184000 | 59 | 152 | 1.7 | 0.0 | 0.00 | 0.00 | 0.00 | 99 | 1008.4 |
| 20260507183000 | 59 | 180 | 3.5 | 0.0 | 0.00 | 0.00 | 0.00 | 99 | 1008.4 |
| 20260507182000 | 59 | 179 | 1.7 | 0.0 | 0.00 | 0.00 | 0.00 | 99 | 1008.4 |
| 20260507181001 | 59 | 215 | 6.1 | 0.0 | 0.00 | 0.00 | 0.00 | 99 | 1008.1 |
| 20260507180001 | 59 | 212 | 9.6 | 0.0 | 0.00 | 0.00 | 0.00 | 99 | 1007.7 |
| 20260507175000 | 59 | 186 | 15.6 | 0.0 | 0.00 | 0.00 | 0.00 | 99 | 1007.7 |
| 20260507174001 | 59 | 185 | 13.9 | 0.0 | 0.00 | 0.00 | 0.00 | 99 | 1007.7 |
| 20260507173000 | 59 | 200 | 13.9 | 0.0 | 0.00 | 0.00 | 0.00 | 99 | 1007.7 |
| 20260507172001 | 59 | 180 | 11.3 | 0.0 | 0.00 | 0.00 | 0.00 | 99 | 1007.7 |
| 20260507171001 | 59 | 191 | 7.8 | 0.0 | 0.00 | 0.00 | 0.00 | 99 | 1007.7 |
| 20260507170001 | 59 | 183 | 13.9 | 0.0 | 0.00 | 0.00 | 0.00 | 99 | 1007.4 |
| 20260507165001 | 59 | 159 | 9.6 | 0.0 | 0.00 | 0.00 | 0.00 | 99 | 1007.7 |
| 20260507164000 | 59 | 180 | 9.6 | 0.0 | 0.00 | 0.00 | 0.00 | 99 | 1007.7 |
| 20260507163000 | 59 | 203 | 7.8 | 0.0 | 0.00 | 0.00 | 0.00 | 99 | 1007.7 |
| 20260507162000 | 59 | 188 | 6.1 | 0.0 | 0.00 | 0.00 | 0.00 | 99 | 1007.7 |
| 20260507161001 | 59 | 186 | 6.1 | 0.0 | 0.00 | 0.00 | 0.00 | 99 | 1007.7 |
| 20260507160001 | 59 | 188 | 7.8 | 0.0 | 0.00 | 0.00 | 0.00 | 99 | 1007.7 |
| 20260507155001 | 59 | 176 | 11.3 | 0.0 | 0.00 | 0.00 | 0.00 | 99 | 1007.7 |
| 20260507154000 | 59 | 180 | 13.9 | 0.0 | 0.00 | 0.00 | 0.00 | 99 | 1007.7 |
| 20260507153001 | 61 | 152 | 6.1 | 0.0 | 0.00 | 0.00 | 0.00 | 99 | 1008.1 |
| 20260507152000 | 61 | 171 | 9.6 | 0.0 | 0.00 | 0.00 | 0.00 | 99 | 1008.1 |
| 20260507151001 | 61 | 175 | 15.6 | 0.0 | 0.00 | 0.00 | 0.00 | 99 | 1008.1 |
| 20260507150001 | 61 | 157 | 17.4 | 0.0 | 0.00 | 0.00 | 0.00 | 99 | 1008.1 |
| 20260507145001 | 63 | 160 | 15.6 | 0.0 | 0.00 | 0.00 | 0.00 | 97 | 1007.7 |
| 20260507144000 | 63 | 180 | 11.3 | 0.0 | 0.00 | 0.00 | 0.00 | 93 | 1007.7 |
| 20260507143001 | 63 | 195 | 17.4 | 0.0 | 0.00 | 0.00 | 0.00 | 92 | 1007.7 |
| 20260507142001 | 66 | 173 | 11.3 | 0.0 | 0.00 | 0.00 | 0.00 | 84 | 1007.4 |
| 20260507141000 | 66 | 217 | 9.6 | 0.0 | 0.00 | 0.00 | 0.00 | 78 | 1006.7 |
| 20260507140001 | 66 | 227 | 13.9 | 0.0 | 0.00 | 0.00 | 0.00 | 78 | 1006.7 |
| 20260507135001 | 66 | 242 | 9.6 | 0.0 | 0.00 | 0.00 | 0.00 | 78 | 1006.4 |
| 20260507134000 | 66 | 258 | 3.5 | 0.0 | 0.00 | 0.00 | 0.00 | 76 | 1006.4 |
| 20260507133001 | 68 | 229 | 13.9 | 0.0 | 0.00 | 0.00 | 0.00 | 72 | 1006.4 |
| 20260507132001 | 66 | 274 | 13.9 | 0.0 | 0.00 | 0.00 | 0.00 | 80 | 1006.4 |
| 20260507131000 | 68 | 236 | 17.4 | 0.0 | 0.00 | 0.00 | 0.00 | 78 | 1006.4 |
| 20260507130001 | 68 | 222 | 9.6 | 0.0 | 0.00 | 0.00 | 0.00 | 80 | 1006.4 |
| 20260507125000 | 68 | 270 | 11.3 | 0.0 | 0.00 | 0.00 | 0.00 | 70 | 1006.4 |
| 20260507124001 | 70 | 239 | 17.4 | 0.0 | 0.00 | 0.00 | 0.00 | 70 | 1006.4 |
| 20260507123000 | 72 | 331 | 6.1 | 0.0 | 0.00 | 0.00 | 0.00 | 70 | 1006.4 |
| 20260507122001 | 70 | 341 | 7.8 | 0.0 | 0.00 | 0.00 | 0.00 | 71 | 1006.4 |
| 20260507121001 | 70 | 242 | 7.8 | 0.0 | 0.00 | 0.00 | 0.00 | 74 | 1006.4 |
| 20260507120001 | 70 | 239 | 13.9 | 0.0 | 0.00 | 0.00 | 0.00 | 72 | 1006.4 |
| 20260507115000 | 70 | 272 | 11.3 | 0.0 | 0.00 | 0.00 | 0.00 | 72 | 1006.4 |
| 20260507114001 | 70 | 320 | 9.6 | 0.0 | 0.00 | 0.00 | 0.00 | 71 | 1006.4 |
| 20260507113001 | 70 | 221 | 17.4 | 0.0 | 0.00 | 0.00 | 0.00 | 70 | 1006.4 |
| 20260507112001 | 70 | 223 | 15.6 | 0.0 | 0.00 | 0.00 | 0.00 | 69 | 1006.4 |
| 20260507111000 | 70 | 319 | 7.8 | 0.0 | 0.00 | 0.00 | 0.00 | 69 | 1006.4 |
| 20260507110000 | 70 | 253 | 21.7 | 0.0 | 0.00 | 0.00 | 0.00 | 69 | 1006.4 |
| 20260507105001 | 70 | 220 | 15.6 | 0.0 | 0.00 | 0.00 | 0.00 | 70 | 1006.4 |
| 20260507104001 | 70 | 328 | 11.3 | 0.0 | 0.00 | 0.00 | 0.00 | 70 | 1006.4 |
| 20260507103000 | 70 | 256 | 13.9 | 0.0 | 0.00 | 0.00 | 0.00 | 72 | 1006.4 |
| 20260507102001 | 72 | 236 | 7.8 | 0.0 | 0.00 | 0.00 | 0.00 | 70 | 1006.1 |
| 20260507101000 | 72 | 302 | 3.5 | 0.0 | 0.00 | 0.00 | 0.00 | 71 | 1006.1 |
| 20260507100002 | 70 | 275 | 17.4 | 0.0 | 0.00 | 0.00 | 0.00 | 70 | 1005.7 |
| 20260507095000 | 72 | 300 | 17.4 | 0.0 | 0.00 | 0.00 | 0.00 | 68 | 1005.7 |
| 20260507094001 | 72 | 241 | 15.6 | 0.0 | 0.00 | 0.00 | 0.00 | 67 | 1005.7 |
| 20260507093001 | 72 | 224 | 7.8 | 0.0 | 0.00 | 0.00 | 0.00 | 68 | 1005.7 |
| 20260507092000 | 72 | 226 | 13.9 | 0.0 | 0.00 | 0.00 | 0.00 | 65 | 1005.7 |
| 20260507091000 | 72 | 246 | 13.9 | 0.0 | 0.00 | 0.00 | 0.00 | 66 | 1005.7 |
| 20260507090001 | 70 | 234 | 11.3 | 0.0 | 0.00 | 0.00 | 0.00 | 67 | 1005.7 |
| 20260507085001 | 70 | 270 | 13.9 | 0.0 | 0.00 | 0.00 | 0.00 | 67 | 1005.7 |
| 20260507084000 | 70 | 251 | 11.3 | 0.0 | 0.00 | 0.00 | 0.00 | 67 | 1005.7 |
| 20260507083001 | 70 | 226 | 9.6 | 0.0 | 0.00 | 0.00 | 0.00 | 67 | 1005.4 |
| 20260507082000 | 70 | 249 | 21.7 | 0.0 | 0.00 | 0.00 | 0.00 | 69 | 1005.4 |
| 20260507081001 | 70 | 265 | 13.9 | 0.0 | 0.00 | 0.00 | 0.00 | 67 | 1005.0 |
| 20260507080001 | 70 | 254 | 11.3 | 0.0 | 0.00 | 0.00 | 0.00 | 67 | 1005.0 |
| 20260507075000 | 70 | 237 | 9.6 | 0.0 | 0.00 | 0.00 | 0.00 | 68 | 1005.0 |
| 20260507074000 | 70 | 207 | 11.3 | 0.0 | 0.00 | 0.00 | 0.00 | 68 | 1005.0 |
| 20260507073000 | 70 | 256 | 9.6 | 0.0 | 0.00 | 0.00 | 0.00 | 66 | 1005.0 |
| 20260507072000 | 70 | 265 | 7.8 | 0.0 | 0.00 | 0.00 | 0.00 | 68 | 1005.0 |
| 20260507071001 | 70 | 314 | 3.5 | 0.0 | 0.00 | 0.00 | 0.00 | 67 | 1005.0 |
| 20260507070000 | 70 | 224 | 11.3 | 0.0 | 0.00 | 0.00 | 0.00 | 70 | 1004.7 |
| 20260507065001 | 68 | 211 | 13.9 | 0.0 | 0.00 | 0.00 | 0.00 | 70 | 1004.7 |
| 20260507064001 | 68 | 248 | 7.8 | 0.0 | 0.00 | 0.00 | 0.00 | 70 | 1004.7 |
| 20260507063000 | 68 | 307 | 6.1 | 0.0 | 0.00 | 0.00 | 0.00 | 69 | 1004.7 |
| 20260507062000 | 68 | 253 | 7.8 | 0.0 | 0.00 | 0.00 | 0.00 | 71 | 1004.7 |
| 20260507061000 | 68 | 233 | 13.9 | 0.0 | 0.00 | 0.00 | 0.00 | 73 | 1004.0 |
| 20260507060001 | 66 | 334 | 1.7 | 0.0 | 0.00 | 0.00 | 0.00 | 75 | 1004.0 |
| 20260507055000 | 66 | 351 | 3.5 | 0.0 | 0.00 | 0.00 | 0.00 | 73 | 1004.0 |
| 20260507054000 | 66 | 234 | 6.1 | 0.0 | 0.00 | 0.00 | 0.00 | 71 | 1004.0 |
| 20260507053000 | 66 | 244 | 6.1 | 0.0 | 0.00 | 0.00 | 0.00 | 73 | 1003.7 |
| 20260507052000 | 64 | 177 | 9.6 | 0.0 | 0.00 | 0.00 | 0.00 | 74 | 1003.7 |
| 20260507051000 | 64 | 212 | 11.3 | 0.0 | 0.00 | 0.00 | 0.00 | 74 | 1003.7 |
| 20260507050001 | 64 | 199 | 6.1 | 0.0 | 0.00 | 0.00 | 0.00 | 74 | 1003.7 |
| 20260507045000 | 64 | 176 | 6.1 | 0.0 | 0.00 | 0.00 | 0.00 | 74 | 1003.7 |
| 20260507044000 | 64 | 192 | 7.8 | 0.0 | 0.00 | 0.00 | 0.00 | 74 | 1003.7 |
| 20260507043001 | 64 | 180 | 7.8 | 0.0 | 0.00 | 0.00 | 0.00 | 74 | 1003.7 |
| 20260507042001 | 64 | 289 | 3.5 | 0.0 | 0.00 | 0.00 | 0.00 | 70 | 1003.7 |
| 20260507041001 | 64 | 219 | 6.1 | 0.0 | 0.00 | 0.00 | 0.00 | 71 | 1003.3 |
| 20260507040001 | 64 | 191 | 7.8 | 0.0 | 0.00 | 0.00 | 0.00 | 72 | 1003.0 |
| 20260507035000 | 64 | 184 | 13.9 | 0.0 | 0.00 | 0.00 | 0.00 | 73 | 1003.0 |
| 20260507034000 | 64 | 207 | 21.7 | 0.0 | 0.00 | 0.00 | 0.00 | 73 | 1003.0 |
| 20260507033000 | 63 | 183 | 7.8 | 0.0 | 0.00 | 0.00 | 0.00 | 74 | 1003.3 |
| 20260507032000 | 63 | 174 | 0.0 | 0.0 | 0.00 | 0.00 | 0.00 | 72 | 1003.3 |
| 20260507031001 | 64 | 213 | 11.3 | 0.0 | 0.00 | 0.00 | 0.00 | 72 | 1003.0 |
| 20260507030000 | 64 | 190 | 21.7 | 0.0 | 0.00 | 0.00 | 0.00 | 71 | 1003.0 |
| 20260507025000 | 64 | 256 | 11.3 | 0.0 | 0.00 | 0.00 | 0.00 | 72 | 1003.0 |
| 20260507024001 | 64 | 200 | 15.6 | 0.0 | 0.00 | 0.00 | 0.00 | 76 | 1003.0 |
| 20260507023000 | 63 | 177 | 15.6 | 0.0 | 0.00 | 0.00 | 0.00 | 79 | 1003.0 |
| 20260507022001 | 59 | 180 | 11.3 | 0.0 | 0.00 | 0.00 | 0.00 | 87 | 1003.0 |
| 20260507021001 | 59 | 174 | 6.1 | 0.0 | 0.00 | 0.00 | 0.00 | 90 | 1003.0 |
| 20260507020000 | 55 | 163 | 3.5 | 0.0 | 0.00 | 0.00 | 0.00 | 99 | 1003.0 |
| 20260507015001 | 55 | 6 | 1.7 | 0.0 | 0.00 | 0.00 | 0.00 | 99 | 1003.0 |
| 20260507014001 | 54 | 13 | 1.7 | 0.0 | 0.00 | 0.00 | 0.00 | 99 | 1003.0 |